Location: Arbon
(43.0005°N, 0.7472°E)
Time: 11:16:37
(UTC+00:00)

CSL-04 Rocket - Pass Details

Date: 22 April 2026
Orbit: 804 x 859 km, 98.7° (Epoch: 20 May)

Event Time Altitude Azimuth Distance (km) Brightness Sun altitude
Rises 19:40:19 0° 166° (SSE) 3,414 6.5 -9.7°
Reaches altitude 10° 19:42:41 10° 166° (SSE) 2,485 5.8 -10.1°
Maximum altitude 19:48:13 86° 256° (WSW) 867 3.8 -11.0°
Drops below altitude 10° 19:53:48 10° 345° (NNW) 2,497 6.8 -11.9°
Sets 19:56:11 0° 346° (NNW) 3,434 7.6 -12.3°
